FW4321 Weather Reports


Display with metric or nautical units.
time (UTC)temp
F
wind
direction
speed
MPH
gust
MPH
rain 1hr
in
rain 24hr
in
rain mn
in
humidity
%
barometer
mb
20260504044530 57 360 0.0 6.0 0.00 0.00 0.00 41 1019.5
20260504043014 57 360 2.0 10.0 0.00 0.00 0.00 40 1019.3
20260504041508 57 360 2.0 6.0 0.00 0.00 0.00 41 1019.1
20260504040007 57 360 1.0 11.0 0.00 0.00 0.00 40 1019.2
20260504034506 57 360 2.0 5.0 0.00 0.00 0.00 40 1019.2
20260504033009 58 360 3.0 9.0 0.00 0.00 0.00 39 1019.1
20260504031504 58 360 2.0 5.0 0.00 0.00 0.00 39 1019.0
20260504030005 58 360 1.0 6.0 0.00 0.00 0.00 38 1019.0
20260504024505 58 360 3.0 6.0 0.00 0.00 0.00 37 1019.0
20260504023002 59 360 2.0 5.0 0.00 0.00 0.00 36 1019.0
20260504021502 58 360 0.0 5.0 0.00 0.00 0.00 36 1019.1
20260504020005 59 360 1.0 5.0 0.00 0.00 0.00 35 1019.0
20260504014604 59 360 2.0 8.0 0.00 0.00 0.00 35 1019.0
20260504013101 59 360 0.0 5.0 0.00 0.00 0.00 35 1018.8
20260504011601 59 360 3.0 8.0 0.00 0.00 0.00 34 1018.7
20260504004603 59 360 0.0 5.0 0.00 0.00 0.00 35 1018.3
20260504003057 59 360 1.0 5.0 0.00 0.00 0.00 34 1018.2
20260504001613 59 360 1.0 6.0 0.00 0.00 0.00 34 1017.9
20260504000056 60 360 0.0 8.0 0.00 0.00 0.00 33 1017.7
20260503234556 60 360 1.0 5.0 0.00 0.00 0.00 33 1017.6
20260503233055 60 360 2.0 12.0 0.00 0.00 0.00 32 1017.3
20260503231555 60 360 1.0 8.0 0.00 0.00 0.00 32 1017.2
20260503230055 60 360 1.0 5.0 0.00 0.00 0.00 31 1017.1
20260503224554 61 174 1.0 10.0 0.00 0.00 0.00 30 1017.1
20260503223054 61 294 3.0 12.0 0.00 0.00 0.00 29 1017.1
20260503221555 61 209 4.0 12.0 0.00 0.00 0.00 29 1016.7
20260503220107 61 194 2.0 11.0 0.00 0.00 0.00 29 1017.0
20260503214550 61 283 5.0 12.0 0.00 0.00 0.00 29 1016.9
20260503213050 60 109 3.0 11.0 0.00 0.00 0.00 30 1016.8
20260503211601 61 236 4.0 9.0 0.00 0.00 0.00 30 1016.9
20260503210054 60 198 2.0 10.0 0.00 0.00 0.00 31 1016.8
20260503204553 61 182 4.0 15.0 0.00 0.00 0.00 30 1016.7
20260503203044 60 325 2.0 11.0 0.00 0.00 0.00 31 1016.8
20260503201543 58 206 4.0 13.0 0.00 0.00 0.00 32 1016.9
20260503200040 59 187 2.0 11.0 0.00 0.00 0.00 33 1017.1
20260503194539 59 180 4.0 11.0 0.00 0.00 0.00 33 1017.0
20260503193042 58 360 7.0 14.0 0.00 0.00 0.00 34 1017.2
20260503191537 56 360 6.0 17.0 0.00 0.00 0.00 35 1017.4
20260503190036 57 360 4.0 17.0 0.00 0.00 0.00 35 1017.6
20260503184533 56 360 4.0 10.0 0.00 0.00 0.00 37 1017.8
20260503183038 56 360 2.0 12.0 0.00 0.00 0.00 38 1017.8
20260503181601 56 360 5.0 15.0 0.00 0.00 0.00 37 1017.8
20260503180029 54 360 3.0 17.0 0.00 0.00 0.00 39 1017.8
20260503174528 55 360 5.0 12.0 0.00 0.00 0.00 38 1017.9
20260503173042 54 360 6.0 16.0 0.00 0.00 0.00 40 1017.8
20260503171526 53 360 2.0 14.0 0.00 0.00 0.00 41 1018.0
20260503100107 46 360 2.0 12.0 0.00 0.00 0.00 56 1017.4
20260503081540 47 360 4.0 11.0 0.00 0.01 0.00 56 1017.2
20260503071536 49 360 1.0 10.0 0.00 0.01 0.00 53 1017.2
20260503054523 51 360 2.0 8.0 0.00 0.01 0.00 50 1017.4
20260503053030 51 360 2.0 6.0 0.00 0.01 0.00 49 1017.4
20260503051514 52 360 3.0 10.0 0.00 0.01 0.00 48 1017.8
20260503050014 52 360 2.0 6.0 0.00 0.01 0.00 49 1017.8